Location: Maiden
(35.5760°N, 81.2120°W)
Time: 04:38:16
(UTC-04:00)

Cosmos 1602 Rocket - Pass Details

Date: 14 June 2018
Orbit: 604 x 633 km, 82.5° (Epoch: 21 October)

Event Time Altitude Azimuth Distance (km) Brightness Sun altitude
Exits shadow 21:31:55 - 160° (SSE) 2,204 5.9 -9.3°
Reaches altitude 10° 21:32:28 10° 158° (SSE) 1,997 5.6 -9.4°
Maximum altitude 21:36:32 37° 91° (E) 989 4.2 -10.1°
Drops below altitude 10° 21:40:39 10° 25° (NNE) 2,020 6.4 -10.7°
Sets 21:43:01 0° 17° (NNE) 2,934 7.3 -11.1°
